Temperature
16 16 16 16 16 16 15 15 15 15 14 14 14 14 14 14 14 13 13 13 13 12 12 12 12 12 12 12 12 12 11 11 11 11 11 11 11 11 11 11 11 11 11
15 15 15 15 15 15 15 15 14 14 14 14 14 14 14 13 13 13 13 13 13 12 12 12 12 12 12 12 11 11 11 11 11 11 11 11 11 10 11 11 11 11 11
15 15 15 15 15 14 14 14 14 14 14 14 14 13 13 13 13 13 13 13 13 12 12 12 12 12 11 11 11 11 11 11 11 11 10 10 10 10 10 10 10 10 10
14 14 14 14 14 14 14 14 14 14 14 13 13 13 13 13 13 13 13 13 13 12 12 12 12 11 11 11 11 11 11 10 10 10 10 10 10 10 10 10 10 10 10
14 14 14 14 13 13 13 13 13 13 13 13 13 13 13 13 13 13 13 13 13 12 12 12 11 11 11 11 11 10 10 10 10 10 10 10 10 10 10 9 9 9 9
14 14 14 13 13 13 13 13 13 13 13 13 13 13 13 13 13 13 13 13 12 12 12 11 11 11 11 11 10 10 10 9 9 9 9 9 9 9 9 9 9 9 9
13 13 13 13 13 13 13 13 13 13 13 13 13 13 13 13 13 13 13 12 12 12 11 11 11 11 10 10 10 10 9 9 9 9 9 9 9 9 9 9 9 9 9
13 13 13 13 13 13 13 13 13 13 13 13 12 12 12 12 12 12 12 11 11 11 11 11 10 10 10 10 9 9 9 9 8 8 8 8 8 8 9 9 9 9 9
13 13 13 13 13 13 13 13 13 13 13 13 12 12 11 11 11 11 10 10 10 10 10 10 10 10 9 9 9 9 8 8 8 8 8 8 8 8 8 8 8 8 8
13 13 13 13 13 13 13 13 13 13 13 12 12 12 11 10 10 10 9 9 9 9 9 9 9 9 9 8 8 8 8 8 7 7 7 7 7 7 7 8 8 8 8
13 13 13 13 13 13 13 13 13 13 12 12 12 11 11 10 9 9 8 9 9 9 9 8 8 8 8 8 8 7 7 7 7 7 7 7 7 7 7 7 7 8 8
13 13 13 13 13 13 13 13 12 12 12 12 11 11 10 9 9 8 8 8 8 8 8 8 8 7 7 7 7 7 7 6 6 6 6 6 6 6 7 7 7 7 7
13 13 13 13 13 12 12 12 12 12 11 11 11 10 10 9 8 8 7 7 7 7 7 7 7 7 7 6 6 6 6 6 6 5 5 6 6 6 6 6 7 7 7
12 12 12 12 12 12 12 12 11 11 11 10 10 9 9 8 8 7 7 6 6 6 6 6 6 6 6 6 6 5 5 5 5 5 5 5 5 6 6 6 6 6 7
12 12 12 12 12 12 11 11 11 11 10 10 9 8 8 7 7 7 6 6 6 5 6 6 6 6 5 5 5 5 4 4 4 4 4 4 5 5 5 5 5 6 6
11 11 11 11 11 11 11 11 10 10 9 9 8 8 7 7 6 6 6 5 5 5 5 5 5 5 5 4 4 4 4 4 3 3 4 4 4 4 4 4 5 5 5
11 11 11 11 11 10 10 10 9 9 8 8 7 6 6 5 5 5 5 5 5 4 4 4 4 4 4 4 3 3 3 3 3 3 3 3 3 3 3 4 4 4 4
10 10 10 10 10 10 9 9 8 8 7 6 6 5 5 4 4 4 4 4 4 4 4 4 3 3 3 3 3 3 2 2 2 2 2 2 2 2 3 3 3 3 4
9 9 9 9 9 9 9 8 8 7 6 5 4 4 4 4 3 3 3 3 3 3 3 3 3 3 2 2 2 2 2 2 2 2 1 2 2 2 2 2 3 3 3
9 9 9 9 9 8 8 7 6 5 4 4 3 3 3 3 3 3 3 3 3 3 2 2 2 2 2 2 1 1 1 1 1 1 1 1 1 1 2 2 2 2 2
8 8 8 8 8 7 7 6 5 4 3 3 2 2 2 2 2 2 2 2 2 2 2 2 1 1 1 1 1 1 0 0 0 0 1 1 1 1 1 1 1 1 2
7 7 7 7 7 6 5 5 4 3 3 2 2 1 1 1 1 1 1 2 2 1 1 1 1 1 1 1 0 0 -0 -0 -0 0 0 0 0 0 0 0 0 1 1
7 7 7 6 6 5 4 4 3 2 2 1 1 1 1 1 1 1 1 1 1 1 1 1 1 0 0 -0 -0 -0 -0 -0 -0 -0 -0 -0 -0 -0 -0 -0 -0 0 0
6 6 6 5 5 4 3 3 2 2 1 1 1 1 1 0 0 0 0 0 0 0 0 0 0 -0 -0 -0 -1 -1 -1 -1 -1 -1 -1 -1 -1 -1 -1 -1 -1 -1 -1
5 5 5 4 4 3 2 2 2 1 1 0 0 0 0 -0 -0 -0 -0 -0 0 0 0 -0 -0 -0 -1 -1 -1 -1 -1 -1 -1 -1 -1 -1 -1 -1 -1 -1 -1 -1 -1
4 4 4 3 3 2 2 1 1 1 0 0 0 0 -0 -0 -0 -0 -0 -0 -0 -0 -0 -0 -1 -1 -1 -1 -1 -1 -1 -1 -1 -1 -1 -1 -1 -1 -1 -1 -2 -2 -2
Wind_Speed
5 5 4 5 5 4 4 3 2 2 2 3 3 3 3 4 5 5 7 8 9 9 10 11 10 9 7 6 6 6 6 6 6 5 5 5 3 2 1 1 2 3 4
8 6 5 5 5 6 5 4 3 2 2 2 3 3 4 5 5 6 7 8 9 9 10 11 11 9 6 5 5 4 4 6 7 7 7 7 7 5 4 3 1 1 2
11 8 5 4 6 7 6 4 3 2 2 2 3 3 4 5 6 7 8 8 9 9 10 9 8 6 4 3 3 4 3 3 4 7 8 8 8 8 8 6 5 3 1
13 9 5 5 7 7 5 3 2 2 2 2 3 3 3 5 6 8 8 8 8 8 6 5 4 2 2 3 4 5 5 4 3 4 6 8 9 9 10 10 8 7 5
14 11 7 6 7 5 3 3 2 2 2 3 3 4 4 4 4 6 6 7 6 4 3 1 1 1 2 3 4 5 6 6 5 4 5 5 7 9 10 11 11 10 9
13 11 7 6 7 3 3 3 3 2 2 2 3 4 4 4 3 3 4 3 2 1 1 1 2 3 5 6 6 6 6 6 6 6 6 6 6 7 9 10 12 12 12
11 9 5 5 5 4 4 3 2 2 2 1 1 3 3 2 2 2 2 2 2 2 3 4 5 6 7 8 9 8 7 6 7 7 7 7 6 7 8 9 10 12 12
9 8 5 5 4 4 3 3 3 2 1 1 1 1 4 4 3 3 3 3 3 4 5 6 7 7 7 8 9 9 8 8 8 8 7 7 7 7 7 8 9 10 12
8 8 7 5 4 4 4 3 3 3 2 1 1 2 1 3 3 2 3 4 4 4 4 6 7 7 7 8 8 9 9 9 9 9 8 7 7 8 8 8 7 8 10
6 7 7 6 4 3 3 3 2 2 3 2 1 2 3 3 2 2 1 3 4 5 4 4 6 7 7 8 8 9 9 9 9 10 9 9 8 7 7 7 7 8 8
4 5 6 5 4 3 3 3 2 2 2 2 2 2 2 2 4 4 3 1 2 3 3 3 4 5 7 7 8 9 10 10 10 11 11 10 10 9 9 8 7 6 7
3 4 5 5 4 3 3 3 2 2 1 2 2 2 2 3 3 4 4 3 2 1 2 3 3 4 5 7 8 9 10 10 10 11 12 12 12 9 8 8 7 6 5
3 4 4 4 4 4 3 3 2 1 1 1 2 2 2 2 2 2 3 3 2 2 2 1 2 3 4 6 7 8 9 10 10 11 12 12 12 11 8 7 7 6 4
5 5 5 5 5 4 4 3 2 1 1 1 1 1 1 1 1 2 2 2 3 2 3 3 1 2 4 5 6 7 8 10 10 10 11 12 13 13 12 9 8 8 6
5 6 6 5 4 4 4 3 2 1 1 1 1 1 1 1 1 1 1 2 3 3 4 4 3 2 3 5 6 7 8 9 9 10 11 13 13 13 13 12 11 9 8
6 7 6 5 4 3 3 3 2 2 2 1 1 1 1 0 0 0 1 1 1 2 2 2 2 2 3 4 5 6 7 8 9 9 10 12 13 14 14 13 12 10 9
7 7 6 6 5 4 3 3 2 2 2 1 1 2 1 1 0 0 0 0 0 1 2 2 2 2 2 3 4 5 7 8 8 9 9 10 11 12 13 14 14 14 12
5 5 5 5 5 4 3 3 2 2 2 2 2 2 2 1 1 1 1 1 0 0 1 3 2 2 2 3 3 3 5 6 7 8 8 9 10 10 11 12 13 14 14
6 5 5 5 5 4 3 2 2 2 2 2 3 3 3 3 2 1 1 1 0 1 0 2 3 2 2 2 3 2 3 4 6 7 8 9 9 9 10 10 11 12 13
6 6 5 5 4 4 3 3 3 3 3 3 3 3 3 3 3 2 1 1 0 1 1 2 2 2 2 2 3 2 1 2 3 5 6 7 8 9 10 10 10 10 10
6 6 6 5 4 4 4 4 4 4 4 4 3 3 3 3 4 3 2 1 1 1 1 2 2 2 2 2 2 1 1 1 2 3 3 4 6 7 9 9 8 8 8
6 6 6 6 5 3 5 6 5 4 4 5 4 3 3 3 3 4 4 3 2 2 2 2 2 2 2 2 2 2 2 1 0 2 2 2 4 3 5 7 6 5 6
6 6 6 6 5 5 7 7 7 5 5 5 5 4 3 3 4 4 5 6 5 5 2 3 3 3 4 4 4 3 2 2 1 1 1 1 2 2 4 6 5 4 5
6 6 6 6 5 6 8 8 8 5 4 4 5 5 5 4 3 4 4 4 3 4 3 3 3 3 3 4 4 4 3 3 1 1 1 0 1 2 3 5 6 5 5
6 6 5 7 6 6 9 9 8 5 4 4 4 4 5 4 6 6 5 4 2 2 3 5 6 5 5 6 7 4 3 2 1 0 1 1 1 1 2 2 4 5 5
6 7 6 6 7 6 9 10 10 5 5 4 3 4 6 7 7 7 6 5 4 2 2 3 4 5 5 4 4 4 4 3 2 1 0 1 1 2 1 1 2 4 4
Wind_Direction
183 188 194 199 206 208 207 207 220 278 305 308 299 285 289 292 289 285 288 292 286 279 278 281 279 273 266 268 261 257 248 239 234 231 223 216 213 206 173 68 49 41 39
191 189 194 202 213 216 215 213 221 243 272 283 285 278 275 281 281 281 284 290 291 286 281 279 279 279 280 282 286 279 273 259 242 235 230 225 222 218 214 211 200 95 49
198 193 192 204 216 217 215 217 226 229 247 253 266 272 269 272 275 279 282 282 286 287 283 275 272 274 293 312 323 330 332 316 274 249 239 235 230 225 219 215 212 206 186
200 191 191 206 211 202 197 192 193 211 236 245 260 268 265 272 275 278 279 278 279 281 281 273 261 272 330 360 7 11 13 13 346 306 265 249 241 232 225 219 215 212 209
198 191 195 203 195 184 185 188 189 195 226 250 260 267 267 268 275 282 280 280 274 264 262 278 72 75 66 57 52 40 31 24 8 340 321 284 259 244 235 225 219 216 213
196 191 191 191 180 167 176 183 196 199 217 245 271 279 277 278 286 291 289 295 291 257 187 133 100 83 85 86 75 60 44 30 13 357 333 315 287 260 246 236 226 220 216
193 188 184 178 170 174 183 185 184 201 228 208 300 311 310 314 336 342 354 9 28 52 83 94 99 96 89 85 76 66 47 26 7 356 347 328 312 288 260 248 237 226 218
191 187 178 175 169 170 175 180 176 176 199 164 173 322 328 339 360 20 28 40 36 51 64 72 87 91 91 83 74 66 47 28 9 354 344 337 322 307 286 267 248 234 224
187 179 176 170 168 169 178 185 179 183 207 214 187 186 232 273 311 345 33 42 44 47 50 64 75 82 85 81 71 61 47 30 13 0 351 339 328 316 306 288 265 245 231
166 166 165 160 153 153 158 167 165 174 180 212 223 219 217 212 248 302 344 40 51 49 46 58 66 70 74 75 67 58 47 31 16 7 1 352 343 334 320 305 290 262 241
139 142 143 137 136 132 137 141 147 160 176 193 204 215 226 230 227 237 262 277 44 47 49 58 67 67 68 71 64 57 48 34 19 9 4 2 357 350 343 334 315 293 255
117 121 124 120 116 116 118 123 129 148 167 193 209 210 212 222 222 226 246 240 222 138 63 58 67 69 73 72 64 58 48 36 23 13 12 15 9 357 342 337 335 320 282
156 150 130 120 112 108 108 109 115 129 151 198 223 228 231 238 239 234 247 251 222 172 148 89 63 80 85 79 66 58 48 41 30 21 20 21 17 14 4 352 352 350 330
153 143 127 119 118 117 113 111 123 132 133 166 211 228 230 242 245 241 242 242 242 206 182 175 114 93 97 86 73 63 51 45 39 32 30 30 29 26 25 23 19 17 19
136 136 128 125 120 117 118 121 126 126 128 147 191 220 223 243 256 262 253 236 235 235 219 175 161 134 122 97 83 70 55 47 43 39 38 38 36 34 35 37 36 35 37
130 131 128 127 125 120 118 119 123 132 143 163 175 172 165 198 302 315 290 275 253 237 224 145 142 138 134 116 91 77 62 51 42 40 38 40 40 38 39 42 40 39 48
137 139 140 139 134 127 121 121 131 145 160 165 155 159 158 153 149 19 6 344 319 245 213 135 112 122 124 120 96 80 66 54 41 40 41 43 42 39 39 43 46 49 54
130 133 134 132 131 127 123 130 147 159 173 175 170 161 163 143 122 70 61 60 16 319 186 167 137 133 125 130 111 85 62 52 42 36 41 45 44 41 40 43 47 50 54
133 133 135 139 136 132 128 130 153 163 168 173 171 171 171 160 153 126 101 94 15 352 64 147 138 122 110 112 101 81 64 41 42 34 39 43 43 44 44 47 50 52 55
148 148 146 144 143 143 144 147 154 151 147 143 147 155 161 168 168 159 145 132 112 81 87 123 130 123 115 103 108 107 84 39 25 18 27 37 43 48 50 52 53 54 57
156 153 146 144 149 153 163 166 163 160 155 149 140 137 145 155 164 158 151 160 140 139 138 143 144 131 134 133 142 129 127 57 28 20 3 18 29 39 39 39 44 51 56
155 155 158 159 168 179 186 184 172 167 168 167 161 144 132 128 139 133 117 117 127 151 173 161 158 166 161 149 134 132 127 115 299 14 17 3 19 27 18 19 29 44 56
166 167 171 172 182 197 198 194 188 167 170 174 170 164 157 139 111 94 92 77 61 60 102 158 170 180 169 171 150 137 144 151 181 339 24 360 6 8 7 11 22 58 71
175 178 182 184 187 203 203 200 189 162 165 174 176 171 162 153 152 140 125 101 71 44 60 89 139 158 157 152 150 149 146 125 97 45 58 95 351 345 348 6 30 66 74
183 185 183 185 190 205 207 199 174 149 167 176 176 173 171 178 194 172 149 142 116 49 75 106 114 125 135 146 141 117 121 112 142 158 42 117 12 335 333 346 18 37 54
188 184 187 189 191 201 209 203 180 163 174 177 181 192 199 199 209 190 164 166 179 188 131 104 87 81 76 103 137 146 149 142 156 208 216 119 71 28 4 346 4 18 33
Height
1550 1552 1553 1554 1555 1556 1557 1558 1559 1560 1561 1561 1561 1561 1561 1561 1561 1560 1560 1559 1559 1558 1558 1557 1557 1556 1555 1554 1553 1553 1552 1551 1551 1550 1550 1549 1549 1548 1547 1546 1546 1545 1545
1549 1550 1551 1553 1554 1555 1556 1557 1558 1558 1559 1559 1559 1560 1559 1559 1558 1558 1557 1557 1556 1556 1555 1555 1554 1554 1553 1552 1551 1550 1550 1549 1548 1548 1548 1547 1547 1547 1546 1546 1545 1545 1544
1547 1548 1550 1551 1552 1553 1554 1555 1556 1556 1557 1557 1557 1557 1557 1556 1556 1555 1555 1554 1553 1553 1552 1552 1551 1551 1551 1550 1549 1548 1547 1546 1546 1545 1545 1545 1545 1545 1545 1544 1544 1544 1543
1545 1546 1547 1549 1550 1551 1552 1553 1554 1554 1555 1555 1555 1554 1554 1553 1553 1552 1551 1550 1550 1549 1549 1548 1548 1548 1548 1547 1547 1546 1545 1544 1543 1543 1542 1542 1542 1542 1542 1543 1543 1543 1543
1542 1544 1545 1547 1548 1549 1550 1551 1552 1552 1552 1552 1552 1551 1551 1550 1549 1548 1547 1546 1546 1545 1545 1545 1545 1545 1545 1545 1544 1543 1542 1541 1540 1540 1539 1539 1539 1539 1539 1540 1540 1540 1541
1540 1541 1542 1544 1545 1546 1547 1548 1549 1549 1549 1549 1548 1548 1547 1546 1545 1544 1543 1542 1542 1542 1542 1542 1542 1542 1543 1542 1542 1541 1540 1539 1537 1537 1536 1535 1535 1536 1536 1537 1537 1538 1538
1537 1538 1540 1541 1542 1544 1545 1546 1546 1546 1546 1546 1545 1544 1543 1542 1541 1540 1539 1539 1539 1539 1539 1539 1539 1540 1540 1540 1539 1538 1537 1536 1535 1533 1532 1532 1532 1532 1532 1533 1533 1534 1535
1534 1535 1537 1538 1540 1541 1542 1543 1543 1543 1543 1543 1542 1541 1539 1539 1537 1537 1536 1536 1536 1537 1537 1537 1537 1537 1537 1536 1536 1535 1534 1533 1531 1530 1529 1528 1528 1528 1528 1529 1529 1530 1532
1530 1532 1533 1535 1536 1537 1538 1539 1539 1539 1539 1539 1539 1539 1538 1536 1535 1534 1534 1534 1534 1534 1534 1534 1534 1534 1534 1533 1533 1532 1531 1530 1529 1527 1526 1525 1524 1524 1524 1525 1525 1526 1527
1526 1528 1530 1531 1533 1534 1535 1535 1536 1536 1536 1535 1535 1534 1535 1534 1533 1531 1531 1531 1530 1531 1531 1531 1530 1530 1530 1530 1529 1528 1528 1527 1526 1524 1523 1522 1521 1520 1520 1521 1521 1522 1523
1522 1524 1526 1528 1529 1530 1531 1531 1532 1532 1531 1531 1530 1530 1529 1529 1529 1529 1527 1527 1527 1527 1527 1527 1527 1527 1527 1526 1526 1525 1525 1524 1523 1521 1520 1518 1517 1516 1516 1517 1517 1518 1519
1518 1520 1522 1523 1525 1526 1527 1527 1527 1527 1527 1526 1526 1525 1525 1525 1524 1524 1523 1522 1522 1523 1523 1523 1523 1523 1523 1523 1522 1522 1521 1520 1520 1519 1517 1515 1514 1513 1513 1513 1513 1514 1515
1514 1516 1518 1520 1521 1522 1522 1523 1523 1523 1522 1521 1521 1520 1520 1520 1519 1519 1519 1518 1518 1518 1518 1518 1519 1519 1519 1519 1519 1518 1518 1517 1516 1515 1514 1512 1511 1510 1509 1509 1510 1510 1511
1510 1512 1514 1516 1517 1518 1518 1518 1518 1518 1517 1516 1516 1515 1515 1514 1514 1514 1514 1514 1514 1514 1514 1514 1514 1515 1515 1515 1515 1515 1514 1513 1513 1512 1511 1510 1509 1508 1507 1507 1507 1507 1508
1506 1508 1510 1511 1512 1513 1513 1513 1513 1512 1512 1511 1510 1510 1510 1509 1509 1509 1509 1510 1511 1510 1509 1510 1510 1510 1511 1511 1511 1511 1511 1510 1510 1509 1508 1508 1506 1506 1505 1504 1505 1505 1506
1501 1503 1505 1507 1508 1508 1508 1508 1507 1507 1506 1506 1505 1505 1505 1504 1504 1504 1504 1505 1505 1506 1505 1505 1506 1507 1507 1508 1508 1508 1508 1507 1507 1507 1506 1505 1505 1504 1503 1503 1503 1503 1504
1497 1499 1501 1502 1503 1503 1503 1503 1502 1502 1501 1501 1500 1500 1500 1500 1499 1499 1500 1500 1500 1501 1501 1501 1502 1503 1503 1504 1504 1504 1504 1504 1504 1504 1504 1503 1503 1503 1502 1502 1502 1503 1503
1493 1495 1496 1497 1498 1498 1498 1497 1497 1496 1496 1496 1495 1495 1495 1495 1495 1495 1495 1495 1496 1497 1497 1497 1498 1499 1500 1500 1501 1501 1501 1501 1501 1501 1501 1501 1501 1501 1501 1501 1501 1502 1502
1489 1491 1492 1492 1493 1493 1492 1492 1492 1491 1491 1491 1491 1491 1491 1491 1491 1491 1491 1491 1492 1492 1493 1493 1494 1495 1496 1496 1497 1498 1498 1498 1498 1498 1498 1498 1499 1499 1499 1500 1500 1500 1501
1485 1486 1487 1488 1488 1488 1487 1487 1487 1486 1486 1486 1487 1487 1487 1487 1487 1487 1487 1487 1487 1488 1489 1489 1490 1491 1492 1493 1493 1494 1494 1495 1495 1495 1495 1496 1496 1497 1497 1498 1498 1499 1500
1481 1482 1482 1483 1483 1483 1482 1482 1482 1482 1482 1482 1482 1483 1483 1483 1483 1483 1483 1483 1484 1484 1485 1485 1486 1487 1488 1489 1490 1490 1491 1491 1492 1492 1493 1493 1493 1494 1495 1495 1496 1497 1497
1476 1477 1477 1478 1478 1478 1478 1477 1477 1477 1477 1478 1478 1479 1479 1479 1480 1479 1480 1480 1480 1481 1481 1482 1483 1484 1485 1486 1486 1487 1488 1488 1489 1490 1490 1491 1491 1491 1492 1493 1493 1494 1495
1471 1472 1472 1473 1473 1473 1473 1473 1473 1473 1473 1474 1474 1475 1475 1476 1476 1476 1476 1477 1477 1478 1478 1479 1480 1481 1482 1482 1483 1484 1485 1485 1486 1487 1487 1488 1489 1489 1490 1490 1491 1491 1492
1466 1466 1467 1467 1468 1468 1468 1468 1468 1469 1469 1470 1471 1471 1472 1473 1473 1473 1474 1474 1474 1475 1475 1476 1477 1478 1479 1480 1480 1482 1482 1483 1484 1484 1485 1486 1486 1487 1487 1488 1488 1489 1489
1460 1461 1461 1462 1463 1463 1464 1464 1464 1465 1465 1466 1467 1468 1469 1469 1470 1470 1471 1471 1472 1472 1473 1473 1474 1475 1476 1477 1478 1479 1480 1481 1481 1482 1483 1484 1484 1485 1485 1485 1486 1486 1487
1454 1455 1455 1456 1457 1458 1459 1459 1460 1461 1462 1462 1463 1464 1465 1466 1467 1467 1468 1468 1469 1470 1470 1471 1472 1473 1474 1475 1476 1477 1478 1479 1479 1480 1481 1482 1482 1483 1483 1483 1484 1484 1485